Scotstown, Canada
Current Conditions -  °F | °C
As of 4:15 PM on Tuesday 27 Jan 2015 (Local Time) from CYSC Reporting Station
Light Snow Light Snow  
Wind Chill: -6°   Ceiling: 2600
Heat Index:   Visibility: 6mi
Dew Point:   Wind: 8mph
Humidity: 79%   Direction: 10°N
Pressure: 29.84"   Gusts: 25mph
Location:  45.53°N, 71.28°W
Report Text: CYSC 272115Z AUTO 01007G22KT 6SM -SN OVC026 M14/M17 A2984 RMK SLP126
Loading
Personal Weather Stations






























Interactive Weather Map New forecast layout! Learn more

10-Day Weather Forecast

Advertisements
Track Severe Weather on mobile